GW3739 Weather Reports


Display with metric or nautical units.
time (UTC)temp
F
wind
direction
speed
MPH
gust
MPH
rain 1hr
in
rain 24hr
in
rain mn
in
humidity
%
barometer
mb
20260905214125 92 318 2.0 11.0 0.00 0.00 0.00 65 1011.9
20260905213324 93 298 1.0 11.0 0.00 0.00 0.00 67 1011.6
20260905212523 92 340 1.0 11.0 0.00 0.00 0.00 66 1011.6
20260905211722 92 304 1.0 11.0 0.00 0.00 0.00 66 1011.7
20260905210922 92 317 1.0 11.0 0.00 0.00 0.00 68 1011.7
20260905210122 93 299 1.0 11.0 0.00 0.00 0.00 66 1010.9
20260905205322 94 345 1.0 11.0 0.00 0.00 0.00 65 1012.0
20260905204522 94 334 2.0 11.0 0.00 0.00 0.00 63 1012.5
20260905203722 93 305 2.0 11.0 0.00 0.00 0.00 64 1012.0
20260905202923 94 296 1.0 11.0 0.00 0.00 0.00 63 1012.3
20260905202121 94 339 2.0 11.0 0.00 0.00 0.00 63 1012.2
20260905200248 94 342 1.0 11.0 0.00 0.00 0.00 63 1011.8
20260905195448 93 308 1.0 11.0 0.00 0.00 0.00 67 1010.1
20260905194131 92 303 0.0 11.0 0.00 0.00 0.00 68 1010.6
20260905193332 93 313 0.0 11.0 0.00 0.00 0.00 67 1012.8
20260905192014 92 325 1.0 11.0 0.00 0.00 0.00 67 1010.4
20260905191213 92 316 0.0 11.0 0.00 0.00 0.00 70 1013.1
20260905190412 90 328 0.0 11.0 0.00 0.00 0.00 72 1010.4
20260905185058 90 305 0.0 11.0 0.00 0.00 0.00 72 1012.7
20260905184258 92 343 0.0 11.0 0.00 0.00 0.00 69 1013.0
20260905183457 93 329 0.0 11.0 0.00 0.00 0.00 70 1013.2
20260905182655 94 269 0.0 11.0 0.00 0.00 0.00 64 1013.2
20260905181854 93 168 0.0 11.0 0.00 0.00 0.00 67 1013.3
20260905181054 93 303 0.0 11.0 0.00 0.00 0.00 69 1013.2
20260905175736 94 119 2.0 11.0 0.00 0.00 0.00 67 1011.0
20260905174936 94 126 0.0 11.0 0.00 0.00 0.00 67 1013.4
20260905174135 93 340 0.0 11.0 0.00 0.00 0.00 69 1013.7
20260905172305 91 213 0.0 11.0 0.00 0.00 0.00 68 1013.9
20260905171502 92 306 1.0 11.0 0.00 0.00 0.00 67 1013.8
20260905170702 92 332 0.0 11.0 0.00 0.00 0.00 69 1011.9
20260905165901 91 274 0.0 11.0 0.00 0.00 0.00 66 1011.6
20260905165057 91 336 1.0 11.0 0.00 0.00 0.00 70 1013.7
20260905163740 91 41 0.0 11.0 0.00 0.00 0.00 71 1013.9
20260905162939 90 103 0.0 11.0 0.00 0.00 0.00 73 1013.1
20260905162139 90 85 1.0 11.0 0.00 0.00 0.00 74 1011.4
20260905161338 89 217 0.0 11.0 0.00 0.00 0.00 75 1013.6
20260905160537 88 141 0.0 11.0 0.00 0.00 0.00 78 1013.8
20260905155736 87 185 0.0 11.0 0.00 0.00 0.00 76 1014.2
20260905154419 85 133 0.0 11.0 0.00 0.00 0.00 82 1014.0
20260905153102 84 13 0.0 11.0 0.00 0.00 0.00 81 1011.5
20260905151745 85 114 0.0 11.0 0.00 0.00 0.00 78 1011.6
20260905150945 86 64 0.0 11.0 0.00 0.00 0.00 77 1011.7
20260905150144 85 86 1.0 11.0 0.00 0.00 0.00 78 1011.8
20260905145343 84 86 1.0 11.0 0.00 0.00 0.00 79 1014.4
20260905144543 84 89 0.0 11.0 0.00 0.00 0.00 80 1011.7
20260905143742 84 108 2.0 11.0 0.00 0.00 0.00 79 1014.1
20260905142941 87 92 1.0 11.0 0.00 0.00 0.00 76 1014.0
20260905142140 88 138 0.0 11.0 0.00 0.00 0.00 74 1011.3
20260905140823 89 227 0.0 11.0 0.00 0.00 0.00 72 1012.0
20260905140022 88 202 0.0 11.0 0.00 0.00 0.00 75 1011.3
20260905135221 87 202 0.0 11.0 0.00 0.00 0.00 76 1013.5
20260905133904 86 202 0.0 11.0 0.00 0.00 0.00 77 1013.9
20260905133103 85 202 0.0 11.0 0.00 0.00 0.00 81 1013.4
20260905132305 83 202 0.0 11.0 0.00 0.00 0.00 83 1013.5
20260905131503 82 202 0.0 11.0 0.00 0.00 0.00 85 1011.4
20260905130703 81 203 0.0 11.0 0.00 0.00 0.00 86 1011.4
20260905125903 80 209 0.0 11.0 0.00 0.00 0.00 87 1014.0
20260905125103 79 210 0.0 11.0 0.00 0.00 0.00 88 1013.7
20260905123747 77 209 0.0 11.0 0.00 0.00 0.00 90 1014.0
20260905122946 76 205 0.0 11.0 0.00 0.00 0.00 91 1013.5
20260905122146 75 163 0.0 11.0 0.00 0.00 0.00 91 1013.3
20260905121345 75 228 0.0 11.0 0.00 0.00 0.00 92 1013.4
20260905120544 75 234 0.0 11.0 0.00 0.00 0.00 92 1011.1
20260905115744 75 233 0.0 11.0 0.00 0.00 0.00 92 1011.4
20260905114943 75 231 0.0 11.0 0.00 0.00 0.00 92 1013.4
20260905113628 75 229 0.0 11.0 0.00 0.00 0.00 92 1013.6
20260905112828 75 231 0.0 11.0 0.00 0.00 0.00 93 1013.0
20260905112027 74 230 0.0 11.0 0.00 0.00 0.00 93 1013.3
20260905111227 74 229 0.0 11.0 0.00 0.00 0.00 93 1013.1
20260905105912 74 230 0.0 11.0 0.00 0.00 0.00 93 1013.7
20260905105111 74 229 0.0 11.0 0.00 0.00 0.00 93 1013.5
20260905104311 74 230 0.0 11.0 0.00 0.00 0.00 93 1013.7
20260905103510 74 230 0.0 11.0 0.00 0.00 0.00 93 1013.9
20260905102709 74 230 0.0 11.0 0.00 0.00 0.00 92 1013.7
20260905101908 75 229 0.0 11.0 0.00 0.00 0.00 92 1013.2
20260905101108 75 228 0.0 11.0 0.00 0.00 0.00 92 1013.1
20260905100308 75 227 0.0 11.0 0.00 0.00 0.00 92 1013.4
20260905095507 75 226 0.0 11.0 0.00 0.00 0.00 92 1011.0
20260905094706 75 227 0.0 11.0 0.00 0.00 0.00 92 1013.6
20260905093905 75 226 0.0 11.0 0.00 0.00 0.00 92 1011.2
20260905092548 75 226 0.0 11.0 0.00 0.00 0.00 92 1013.3
20260905091748 75 226 0.0 11.0 0.00 0.00 0.00 92 1013.2
20260905090947 75 226 0.0 11.0 0.00 0.00 0.00 92 1013.0
20260905090147 75 226 0.0 11.0 0.00 0.00 0.00 92 1012.9
20260905085346 75 226 0.0 11.0 0.00 0.00 0.00 92 1012.9
20260905084546 75 225 0.0 11.0 0.00 0.00 0.00 92 1012.1
20260905083745 75 226 0.0 11.0 0.00 0.00 0.00 92 1013.0
20260905082944 75 225 0.0 11.0 0.00 0.00 0.00 92 1012.6
20260905082145 75 225 0.0 11.0 0.00 0.00 0.00 92 1012.8
20260905081344 75 227 0.0 11.0 0.00 0.00 0.00 92 1011.0
20260905080544 75 227 0.0 11.0 0.00 0.00 0.00 93 1010.7
20260905075743 75 227 0.0 11.0 0.00 0.00 0.00 93 1013.0
20260905074942 75 227 0.0 11.0 0.00 0.00 0.00 92 1012.7
20260905074141 75 227 0.0 11.0 0.00 0.00 0.00 91 1012.7
20260905073340 75 227 0.0 11.0 0.00 0.00 0.00 92 1012.5
20260905072539 75 226 0.0 11.0 0.00 0.00 0.00 92 1010.8
20260905071738 75 225 0.0 11.0 0.00 0.00 0.00 91 1010.5
20260905070937 75 225 0.0 11.0 0.00 0.00 0.00 91 1013.0
20260905070136 75 228 0.0 11.0 0.00 0.00 0.00 90 1013.1
20260905064820 76 228 0.0 11.0 0.00 0.00 0.00 91 1010.7
20260905064018 76 227 0.0 11.0 0.00 0.00 0.00 92 1013.0
20260905063218 76 226 0.0 11.0 0.00 0.00 0.00 91 1013.1
20260905062417 76 227 0.0 11.0 0.00 0.00 0.00 91 1013.0
20260905061102 77 147 0.0 11.0 0.00 0.00 0.00 91 1010.9
20260905060302 77 145 0.0 11.0 0.00 0.00 0.00 91 1013.2
20260905055502 77 144 0.0 11.0 0.00 0.00 0.00 91 1013.3
20260905054700 77 143 0.0 11.0 0.00 0.00 0.00 92 1013.1
20260905053859 77 143 0.0 11.0 0.00 0.00 0.00 92 1013.6
20260905053058 77 143 0.0 11.0 0.00 0.00 0.00 91 1013.4
20260905052258 77 145 0.0 11.0 0.00 0.00 0.00 91 1013.4
20260905051458 77 144 0.0 11.0 0.00 0.00 0.00 90 1011.1
20260905045624 78 145 0.0 11.0 0.00 0.00 0.00 91 1013.1
20260905044824 78 145 0.0 11.0 0.00 0.00 0.00 91 1011.3
20260905044024 78 146 0.0 11.0 0.00 0.00 0.00 91 1013.5
20260905043224 78 146 0.0 11.0 0.00 0.00 0.00 91 1013.4
20260905042423 78 145 0.0 11.0 0.00 0.00 0.00 91 1013.7
20260905041622 78 145 0.0 11.0 0.00 0.00 0.00 90 1013.8
20260905040821 78 145 0.0 11.0 0.00 0.00 0.00 89 1013.6
20260905040020 79 145 0.0 11.0 0.00 0.00 0.00 90 1013.9
20260905035220 79 143 0.0 11.0 0.00 0.00 0.00 91 1014.0
20260905034419 79 144 0.0 11.0 0.00 0.00 0.00 88 1014.0
20260905033102 80 140 0.0 11.0 0.00 0.00 0.00 89 1013.8
20260905032305 80 139 0.0 11.0 0.00 0.00 0.00 90 1013.6
20260905031501 80 139 0.0 11.0 0.00 0.00 0.00 89 1014.1
20260905030700 80 138 0.0 11.0 0.00 0.00 0.00 88 1014.1
20260905025859 80 138 0.0 11.0 0.00 0.00 0.00 90 1013.9
20260905025059 80 138 0.0 11.0 0.00 0.00 0.00 89 1013.7
20260905024258 80 136 0.0 11.0 0.00 0.00 0.00 88 1013.9
20260905023458 80 135 0.0 11.0 0.00 0.00 0.00 87 1013.8
20260905022657 81 133 0.0 11.0 0.00 0.00 0.00 86 1013.7
20260905021856 81 131 0.0 11.0 0.00 0.00 0.00 87 1013.9
20260905020539 81 129 0.0 11.0 0.00 0.00 0.00 86 1013.6
20260905015739 81 126 0.0 11.0 0.00 0.00 0.00 85 1013.4
20260905014938 82 123 0.0 11.0 0.00 0.00 0.00 86 1013.6
20260905012036 82 208 0.0 11.0 0.00 0.00 0.00 85 1013.1
20260905011236 83 206 0.0 11.0 0.00 0.00 0.00 84 1013.1
20260905005404 84 205 0.0 11.0 0.00 0.00 0.00 83 1013.1
20260905003533 85 205 0.0 11.0 0.00 0.00 0.00 80 1013.3
20260905002732 85 205 0.0 11.0 0.00 0.00 0.00 80 1012.9
20260905001931 85 202 0.0 11.0 0.00 0.00 0.00 79 1013.4
20260905001130 86 174 0.0 11.0 0.00 0.00 0.00 80 1013.1
20260905000329 87 159 0.0 11.0 0.00 0.00 0.00 78 1012.8
20260904235529 88 170 0.0 11.0 0.00 0.00 0.00 77 1012.9
20260904234728 89 194 0.0 11.0 0.00 0.00 0.00 75 1013.1
20260904233928 90 202 0.0 11.0 0.00 0.00 0.00 75 1013.3
20260904233127 91 202 0.0 11.0 0.00 0.00 0.00 73 1013.2
20260904232326 92 203 0.0 11.0 0.00 0.00 0.00 68 1013.1
20260904231525 93 202 0.0 11.0 0.00 0.00 0.00 67 1013.3
20260904230210 95 202 0.0 11.0 0.00 0.00 0.00 65 1013.1
20260904225409 97 202 0.0 11.0 0.00 0.00 0.00 63 1012.7
20260904224608 98 202 0.0 11.0 0.00 0.00 0.00 59 1013.1
20260904223808 99 202 0.0 11.0 0.00 0.00 0.00 57 1012.9
20260904221935 99 202 0.0 11.0 0.00 0.00 0.00 57 1013.2
20260904221134 99 202 0.0 11.0 0.00 0.00 0.00 57 1013.2
20260904220334 99 209 0.0 11.0 0.00 0.00 0.00 56 1013.1
20260904215533 98 217 0.0 11.0 0.00 0.00 0.00 56 1013.2
20260904214732 98 217 0.0 11.0 0.00 0.00 0.00 57 1013.1